{"data":{"norad_id":46674,"epoch":"2026-05-25T03:28:43.101120Z","epoch_age_seconds":62222,"freshness":"FRESH","line1":"1 46674U 20073E   26145.14494330  .00083272  00000+0  68284-3 0  9997","line2":"2 46674  53.0422 213.5545 0002660 305.1143  54.9624 15.69791581309285","mean_motion":15.69791581,"eccentricity":0.000266,"inclination_deg":53.0422,"raan_deg":213.5545,"arg_perigee_deg":305.1143,"mean_anomaly_deg":54.9624,"bstar":0.00068284,"rev_number":30928,"period_min":91.731922723313,"perigee_km":357.70109727409,"apogee_km":361.28551659739,"semimajor_km":6737.6303069357,"source":"CELESTRAK","updated_at":"2026-05-25T13:38:16.514665Z"}}